Weather Roundup
Issued by NWS Springfield, MO

Home | Current Version | Previous Version | Text Only | Print | Product List | Glossary On
Versions: 1 2 3 4 5 6 7 8 9 10 11 12 13 14 15 16 17 18 19 20 21 22 23 24 25 26 27 28 29 30 31 32 33 34 35 36 37 38 39 40 41 42 43 44 45 46 47 48 49 50
000
NZUS99 KSGF 310407
HRRSGF

HOURLY WEATHER
NATIONAL WEATHER SERVICE SPRINGFIELD MO
1100 PM CDT MON MAY 30 2016

......SGF CWA......

CITY           SKY/WX    TMP DP  RH WIND       PRES   REMARKS
SPRINGFIELD    CLOUDY    66  61  84 SE6       29.99R
JOPLIN         CLOUDY    65  63  93 E5        29.98S
WEST PLAINS    MOCLDY    65  62  90 CALM      30.02S
ROLLA          PTCLDY    64  62  93 SE6       29.99S

......SURROUNDING SGF CWA......

CITY           SKY/WX    TMP DP  RH WIND       PRES   REMARKS
CHANUTE        CLEAR     65  62  90 E5        29.96F
PARSONS        PTCLDY    67  63  87 CALM      29.96F
COFFEYVILLE    CLEAR     65  62  90 E5        29.95F
EMPORIA        CLEAR     65  60  84 SE8       29.97R
GROVE OK       CLOUDY    68  64  88 CALM      29.98R
ROGERS AR        N/A     66  65  96 E7        30.00R
SILOAM SPRINGS CLOUDY    64  57  77 CALM      29.99S
HARRISON AR    MOCLDY    65  64  97 SE7       30.03R
NEAR YELLVILLE PTCLDY   N/A N/A N/A S3        29.98R

......KANSAS AND MISSOURI......

CITY           SKY/WX    TMP DP  RH WIND       PRES   REMARKS
KANSAS CTY INT CLEAR     65  58  78 S7        29.97R
DOWNTOWN KC    CLEAR     69  59  70 S8        29.96R
COLUMBIA       CLOUDY    66  62  87 SE3       30.00S
SEDALIA        CLOUDY    66  61  84 SW7       29.98F
ST JOSEPH      CLEAR     69  61  75 S8        29.95R
ST LOUIS       CLOUDY    74  61  63 W8        29.99
SPIRIT OF STL  CLOUDY    69  65  86 CALM      29.98F
KIRKSVILLE     PTCLDY    64  61  90 S5        29.99S
WICHITA        PTCLDY    68  62  81 SE13      29.94R
TOPEKA         CLEAR     69  59  70 S6        29.96R
OLATHE         CLEAR     63  59  87 S8        29.97F

......TENNESSEE......

CITY           SKY/WX    TMP DP  RH WIND       PRES   REMARKS
MEMPHIS        CLOUDY    79  65  62 CALM      29.97S
NASHVILLE      CLEAR     73  59  61 CALM      29.99S

......ARKANSAS.......

CITY           SKY/WX    TMP DP  RH WIND       PRES   REMARKS
FAYETTEVILLE   CLOUDY    65  65 100 CALM      29.98S
FT SMITH       CLOUDY    71  66  84 NE5       29.95S
LITTLE ROCK    CLOUDY    68  64  87 E5        29.99R

......OKLAHOMA.......

CITY           SKY/WX    TMP DP  RH WIND       PRES   REMARKS
TULSA          CLEAR     66  65  96 SE5       29.95R
PONCA CITY     CLEAR     68  64  87 SE16      29.94R
MCALESTER      MOCLDY    70  67  90 E5        29.96R
OKLAHOMA CITY  PTCLDY    71  67  87 SE12      29.93R

......IOWA............

CITY           SKY/WX    TMP DP  RH WIND       PRES   REMARKS
DES MOINES     CLOUDY    72  55  55 S6        29.92R
QUAD CITIES    CLEAR     70  61  73 CALM      29.95S

......ILLINOIS........

CITY           SKY/WX    TMP DP  RH WIND       PRES   REMARKS
QUINCY         PTCLDY    70  61  73 SW7       29.99R
CHICAGO        MOCLDY    70  54  56 E7        29.99R




USA.gov is the U.S. government's official web portal to all federal, state and local government web resources and services.